TimeJST,TemperatureF,Dew PointF,Humidity,Sea Level PressureIn,VisibilityMPH,Wind Direction,Wind SpeedMPH,Gust SpeedMPH,PrecipitationIn,Events,Conditions,WindDirDegrees,DateUTC
12:00 AM,19.4,14.0,80,29.74,6.2,South,3.5,-,N/A,,Mostly Cloudy,170,2013-02-15 15:00:00
12:30 AM,19.4,14.0,80,29.74,6.2,SSE,3.5,-,N/A,,Mostly Cloudy,160,2013-02-15 15:30:00
1:00 AM,19.4,14.0,80,29.74,6.2,WNW,3.5,-,N/A,,Mostly Cloudy,290,2013-02-15 16:00:00
1:30 AM,21.2,14.0,74,29.74,6.2,NNW,3.5,-,N/A,Snow,Light Snow Showers,330,2013-02-15 16:30:00
2:00 AM,21.2,14.0,74,29.74,6.2,WNW,5.8,-,N/A,Snow,Light Snow Showers,300,2013-02-15 17:00:00
2:30 AM,19.4,15.8,86,29.74,5.0,WNW,9.2,-,N/A,Snow,Light Snow Showers,290,2013-02-15 17:30:00
3:00 AM,21.2,17.6,86,29.74,6.2,NNW,11.5,-,N/A,Snow,Light Snow Showers,330,2013-02-15 18:00:00
3:30 AM,19.4,17.6,93,29.74,6.2,NNW,11.5,-,N/A,Snow,Light Snow Showers,330,2013-02-15 18:30:00
4:00 AM,19.4,15.8,86,29.74,6.2,NNW,12.7,-,N/A,,Scattered Clouds,330,2013-02-15 19:00:00
4:30 AM,17.6,14.0,86,29.74,6.2,NNW,11.5,-,N/A,,Partly Cloudy,340,2013-02-15 19:30:00
5:00 AM,17.6,14.0,86,29.77,6.2,NNW,11.5,-,N/A,,Partly Cloudy,340,2013-02-15 20:00:00
5:30 AM,14.0,10.4,86,29.77,6.2,North,6.9,-,N/A,Snow,Light Snow Showers,10,2013-02-15 20:30:00
6:00 AM,15.8,12.2,86,29.77,6.2,North,9.2,-,N/A,Snow,Light Snow Showers,350,2013-02-15 21:00:00
6:30 AM,14.0,12.2,93,29.77,6.2,North,3.5,-,N/A,,Partly Cloudy,350,2013-02-15 21:30:00
7:00 AM,10.4,8.6,92,29.77,6.2,North,6.9,-,N/A,,Partly Cloudy,350,2013-02-15 22:00:00
7:30 AM,14.0,10.4,86,29.77,6.2,NNW,5.8,-,N/A,,Partly Cloudy,330,2013-02-15 22:30:00
8:00 AM,17.6,14.0,86,29.77,6.2,NNW,5.8,-,N/A,,Scattered Clouds,330,2013-02-15 23:00:00
8:30 AM,17.6,14.0,86,29.80,6.2,NW,4.6,-,N/A,,Scattered Clouds,320,2013-02-15 23:30:00
9:00 AM,19.4,15.8,86,29.80,3.7,NNW,8.1,-,N/A,Snow,Light Snow Showers,340,2013-02-16 00:00:00
9:06 AM,19.4,15.8,86,29.80,-9999.0,NNW,10.4,-,N/A,Snow,Light Snow Showers,330,2013-02-16 00:06:00
9:30 AM,19.4,14.0,80,29.80,3.1,NNW,15.0,-,N/A,Snow,Light Snow Showers,340,2013-02-16 00:30:00
9:41 AM,19.4,14.0,80,29.80,-9999.0,NNW,18.4,-,N/A,Snow,Light Snow Showers,340,2013-02-16 00:41:00
10:00 AM,19.4,14.0,80,29.80,-9999.0,NNW,18.4,-,N/A,Snow,Light Snow Showers,340,2013-02-16 01:00:00
10:06 AM,19.4,14.0,80,29.80,1.4,NNW,18.4,-,N/A,Snow,Light Snow Showers,340,2013-02-16 01:06:00
10:08 AM,19.4,14.0,80,29.80,0.9,NNW,18.4,-,N/A,Snow,Light Snow Showers,340,2013-02-16 01:08:00
10:14 AM,19.4,14.0,80,29.80,1.0,NNW,18.4,-,N/A,Snow,Light Snow Showers,340,2013-02-16 01:14:00
10:17 AM,19.4,15.8,86,29.80,3.1,NNW,18.4,-,N/A,Snow,Light Snow Showers,340,2013-02-16 01:17:00
10:30 AM,19.4,12.2,74,29.83,6.2,NNW,20.7,-,N/A,Snow,Light Snow Showers,340,2013-02-16 01:30:00
11:00 AM,19.4,12.2,74,29.83,6.2,North,23.0,-,N/A,,Mostly Cloudy,350,2013-02-16 02:00:00
11:30 AM,21.2,10.4,63,29.83,6.2,NNW,25.3,-,N/A,,Partly Cloudy,340,2013-02-16 02:30:00
12:00 PM,21.2,10.4,63,29.83,6.2,NNW,23.0,-,N/A,,Partly Cloudy,340,2013-02-16 03:00:00
12:21 PM,23.0,8.6,54,29.83,6.2,North,23.0,35.7,N/A,,Partly Cloudy,350,2013-02-16 03:21:00
12:30 PM,23.0,8.6,54,29.83,6.2,North,24.2,36.8,N/A,,Partly Cloudy,350,2013-02-16 03:30:00
1:00 PM,23.0,8.6,54,29.83,6.2,North,21.9,-,N/A,,Partly Cloudy,350,2013-02-16 04:00:00
1:30 PM,23.0,3.2,43,29.83,6.2,North,24.2,-,N/A,,Partly Cloudy,350,2013-02-16 04:30:00
2:00 PM,23.0,3.2,43,29.83,6.2,North,19.6,-,N/A,,Partly Cloudy,360,2013-02-16 05:00:00
2:30 PM,23.0,5.0,46,29.86,6.2,North,18.4,-,N/A,,Partly Cloudy,360,2013-02-16 05:30:00
3:00 PM,23.0,5.0,46,29.86,6.2,North,16.1,-,N/A,,Partly Cloudy,350,2013-02-16 06:00:00
3:30 PM,23.0,5.0,46,29.89,6.2,North,15.0,-,N/A,,Partly Cloudy,350,2013-02-16 06:30:00
4:00 PM,23.0,6.8,50,29.89,6.2,NNW,12.7,-,N/A,,Mostly Cloudy,340,2013-02-16 07:00:00
4:30 PM,21.2,5.0,50,29.92,6.2,NNW,13.8,-,N/A,,Mostly Cloudy,340,2013-02-16 07:30:00
5:00 PM,21.2,8.6,58,29.92,2.8,NNW,13.8,-,N/A,Snow,Light Snow Showers,330,2013-02-16 08:00:00
5:09 PM,21.2,12.2,68,29.92,-9999.0,NNW,12.7,-,N/A,Snow,Light Snow Showers,330,2013-02-16 08:09:00
5:12 PM,21.2,14.0,74,29.92,1.4,NNW,12.7,-,N/A,Snow,Light Snow Showers,330,2013-02-16 08:12:00
5:15 PM,19.4,14.0,80,29.95,0.9,NNW,12.7,-,N/A,Snow,Light Snow Showers,330,2013-02-16 08:15:00
5:23 PM,19.4,15.8,86,29.95,0.9,NNW,12.7,-,N/A,Snow,Light Snow Showers,330,2013-02-16 08:23:00
5:30 PM,19.4,15.8,86,29.95,0.9,NNW,10.4,-,N/A,Snow,Light Snow Showers,330,2013-02-16 08:30:00
5:36 PM,19.4,15.8,86,29.95,0.9,NW,10.4,-,N/A,Snow,Light Snow Showers,320,2013-02-16 08:36:00
6:00 PM,19.4,15.8,86,29.95,0.9,NW,6.9,-,N/A,Snow,Light Snow Showers,310,2013-02-16 09:00:00
6:30 PM,19.4,17.6,93,29.95,0.7,NW,4.6,-,N/A,Snow,Light Snow Showers,310,2013-02-16 09:30:00
6:41 PM,19.4,15.8,86,29.98,0.9,NW,4.6,-,N/A,Snow,Light Snow Showers,310,2013-02-16 09:41:00
7:00 PM,19.4,17.6,93,29.95,0.5,WNW,4.6,-,N/A,Snow,Snow Showers,300,2013-02-16 10:00:00
7:04 PM,19.4,17.6,93,29.98,0.5,WNW,4.6,-,N/A,Snow,Snow Showers,300,2013-02-16 10:04:00
7:11 PM,19.4,17.6,93,29.98,0.6,NW,4.6,-,N/A,Snow,Light Snow Showers,320,2013-02-16 10:11:00
7:19 PM,19.4,17.6,93,29.98,0.6,WNW,5.8,-,N/A,Snow,Snow Showers,300,2013-02-16 10:19:00
7:23 PM,19.4,17.6,93,29.98,0.3,WNW,6.9,-,N/A,Snow,Snow Showers,300,2013-02-16 10:23:00
7:25 PM,19.4,17.6,93,29.98,0.3,WNW,6.9,-,N/A,Snow,Snow Showers,300,2013-02-16 10:25:00
7:30 PM,19.4,17.6,93,29.95,0.4,NNW,4.6,-,N/A,Snow,Snow Showers,330,2013-02-16 10:30:00
7:37 PM,19.4,17.6,93,29.98,0.5,North,4.6,-,N/A,Snow,Snow Showers,350,2013-02-16 10:37:00
8:00 PM,19.4,15.8,86,29.98,0.2,NNW,4.6,-,N/A,Snow,Snow Showers,330,2013-02-16 11:00:00
8:04 PM,19.4,15.8,86,29.98,0.3,NNW,4.6,-,N/A,Snow,Snow Showers,340,2013-02-16 11:04:00
8:08 PM,19.4,15.8,86,29.98,0.6,NNW,3.5,-,N/A,Snow,Light Snow Showers,340,2013-02-16 11:08:00
8:30 PM,19.4,17.6,93,29.98,0.7,NW,4.6,-,N/A,Snow,Light Snow Showers,320,2013-02-16 11:30:00
8:48 PM,19.4,17.6,93,29.98,0.7,WNW,1.2,-,N/A,Snow,Light Snow Showers,300,2013-02-16 11:48:00
9:00 PM,17.6,17.6,100,29.98,1.4,NNW,2.3,-,N/A,Snow,Light Snow Showers,340,2013-02-16 12:00:00
9:14 PM,17.6,15.8,93,29.98,0.9,Variable,2.3,-,N/A,Snow,Light Snow Showers,0,2013-02-16 12:14:00
9:16 PM,19.4,17.6,93,29.98,0.6,Variable,2.3,-,N/A,Snow,Snow Showers,0,2013-02-16 12:16:00
9:30 PM,17.6,17.6,100,29.98,0.5,West,4.6,-,N/A,Snow,Snow Showers,260,2013-02-16 12:30:00
9:48 PM,19.4,17.6,93,29.98,0.6,WSW,4.6,-,N/A,Snow,Light Snow Showers,250,2013-02-16 12:48:00
10:00 PM,19.4,17.6,93,29.98,1.4,Variable,2.3,-,N/A,Snow,Light Snow Showers,0,2013-02-16 13:00:00
10:12 PM,19.4,17.6,93,29.98,1.5,Variable,1.2,-,N/A,Snow,Light Snow Showers,0,2013-02-16 13:12:00
10:21 PM,19.4,15.8,86,29.98,1.4,North,2.3,-,N/A,Snow,Light Snow Showers,10,2013-02-16 13:21:00
10:23 PM,19.4,15.8,86,29.98,0.6,North,3.5,-,N/A,Snow,Snow Showers,360,2013-02-16 13:23:00
10:30 PM,19.4,17.6,93,29.98,0.3,North,4.6,-,N/A,Snow,Snow Showers,350,2013-02-16 13:30:00
10:48 PM,19.4,17.6,93,29.98,0.6,NNW,4.6,-,N/A,Snow,Light Snow Showers,340,2013-02-16 13:48:00
11:00 PM,19.4,15.8,86,29.98,0.9,NNW,5.8,-,N/A,Snow,Light Snow Showers,340,2013-02-16 14:00:00
11:30 PM,17.6,15.8,93,30.01,2.5,NNW,6.9,-,N/A,Snow,Light Snow Showers,330,2013-02-16 14:30:00